When you browse on this site, cookies collect data to enhance your experience and personalize the content and advertising you see.
Visit our Privacy Policy to learn more. By continuing to use the site, you agree to this use of cookies and data.
  • In Hungary
  • List of Countries
  • For 7 days
  • Water Temperature
  • Satellite Maps
  • Weather Map
  • News
  • Weather Widgets
  • user-avatar
    Login

    Hourly Weather Camargo

    Today, 14 December, Friday

    Time Temperature Precipitation Wind Pressure Humidity
    00:00 +6°C° 0.2 mm 9 mps 752 mmHg 94%
    01:00 +6°C° 0.3 mm 8 mps 752 mmHg 94%
    02:00 +5°C° 0.3 mm 8 mps 752 mmHg 94%
    03:00 +5°C° 0.3 mm 8 mps 752 mmHg 95%
    04:00 +5°C° 0.5 mm 8 mps 753 mmHg 95%
    05:00 +5°C° 0.5 mm 8 mps 754 mmHg 95%
    06:00 +5°C° 0.5 mm 8 mps 754 mmHg 95%
    07:00 +6°C° 0.4 mm 7 mps 755 mmHg 93%
    08:00 +6°C° 0.4 mm 7 mps 755 mmHg 92%
    09:00 +8°C° 0.4 mm 7 mps 756 mmHg 91%
    10:00 +9°C° 0.1 mm 7 mps 756 mmHg 85%
    11:00 +10°C° 0.1 mm 6 mps 756 mmHg 78%
    12:00 +11°C° 0.1 mm 6 mps 757 mmHg 72%
    13:00 +11°C° 0 mm 6 mps 756 mmHg 72%
    14:00 +12°C° 0 mm 5 mps 756 mmHg 71%
    15:00 +12°C° 0 mm 4 mps 756 mmHg 71%
    16:00 +11°C° 0 mm 4 mps 757 mmHg 76%
    17:00 +9°C° 0 mm 3 mps 757 mmHg 82%
    18:00 +8°C° 0 mm 2 mps 757 mmHg 87%
    19:00 +8°C° 0 mm 2 mps 757 mmHg 85%
    20:00 +9°C° 0 mm 2 mps 757 mmHg 82%
    21:00 +9°C° 0 mm 3 mps 757 mmHg 80%
    22:00 +9°C° 0.1 mm 3 mps 757 mmHg 81%
    23:00 +9°C° 0.1 mm 3 mps 757 mmHg 81%

    Tomorrow, 15 December, Saturday

    Time Temperature Precipitation Wind Pressure Humidity
    00:00 +9°C° 0.1 mm 3 mps 757 mmHg 82%
    01:00 +9°C° 0.1 mm 3 mps 756 mmHg 85%
    02:00 +8°C° 0.1 mm 4 mps 756 mmHg 88%
    03:00 +7°C° 0.1 mm 4 mps 756 mmHg 91%
    04:00 +8°C° 0.1 mm 4 mps 755 mmHg 92%
    05:00 +8°C° 0.1 mm 4 mps 755 mmHg 93%
    06:00 +8°C° 0.1 mm 4 mps 754 mmHg 93%
    07:00 +10°C° 0.3 mm 4 mps 754 mmHg 92%
    08:00 +11°C° 0.3 mm 4 mps 754 mmHg 91%
    09:00 +10°C° 0.3 mm 5 mps 754 mmHg 91%
    10:00 +13°C° 0 mm 5 mps 754 mmHg 87%
    11:00 +14°C° 0 mm 5 mps 753 mmHg 83%
    12:00 +16°C° 0 mm 5 mps 753 mmHg 79%
    13:00 +15°C° 0 mm 5 mps 753 mmHg 79%
    14:00 +15°C° 0 mm 4 mps 752 mmHg 79%
    15:00 +15°C° 0 mm 4 mps 752 mmHg 79%
    16:00 +15°C° 0.2 mm 4 mps 752 mmHg 81%
    17:00 +15°C° 0.2 mm 4 mps 752 mmHg 83%
    18:00 +14°C° 0.2 mm 5 mps 752 mmHg 85%
    19:00 +14°C° 0.2 mm 5 mps 752 mmHg 87%
    20:00 +14°C° 0.2 mm 5 mps 753 mmHg 88%
    21:00 +14°C° 0.2 mm 6 mps 753 mmHg 89%
    22:00 +13°C° 0.1 mm 5 mps 753 mmHg 90%
    23:00 +13°C° 0.1 mm 5 mps 753 mmHg 91%

    Day after tomorrow, 16 December, Sunday

    Time Temperature Precipitation Wind Pressure Humidity
    00:00 +13°C° 0.1 mm 4 mps 752 mmHg 92%
    01:00 +13°C° 0.1 mm 4 mps 752 mmHg 93%
    02:00 +13°C° 0.1 mm 4 mps 752 mmHg 95%
    03:00 +13°C° 0.1 mm 3 mps 752 mmHg 96%
    04:00 +13°C° 0.1 mm 3 mps 752 mmHg 96%
    05:00 +13°C° 0.1 mm 2 mps 752 mmHg 96%
    06:00 +13°C° 0.1 mm 2 mps 752 mmHg 96%
    07:00 +13°C° 0 mm 2 mps 752 mmHg 96%
    08:00 +13°C° 0 mm 2 mps 752 mmHg 95%
    09:00 +13°C° 0 mm 2 mps 752 mmHg 94%
    10:00 +13°C° 0 mm 3 mps 752 mmHg 83%
    11:00 +13°C° 0 mm 3 mps 752 mmHg 72%
    12:00 +14°C° 0 mm 3 mps 751 mmHg 61%
    13:00 +14°C° 0.6 mm 5 mps 752 mmHg 63%
    14:00 +14°C° 0.6 mm 6 mps 752 mmHg 66%
    15:00 +12°C° 0.6 mm 7 mps 752 mmHg 68%
    16:00 +11°C° 0.2 mm 8 mps 753 mmHg 76%
    17:00 +9°C° 0.2 mm 8 mps 754 mmHg 85%
    18:00 +6°C° 0.2 mm 8 mps 755 mmHg 94%
    19:00 +6°C° 0 mm 7 mps 755 mmHg 94%
    20:00 +5°C° 0 mm 7 mps 756 mmHg 95%
    21:00 +5°C° 0 mm 6 mps 757 mmHg 95%
    22:00 +6°C° 0 mm 5 mps 757 mmHg 94%
    23:00 +6°C° 0 mm 5 mps 757 mmHg 92%

    17 December, Monday

    Time Temperature Precipitation Wind Pressure Humidity
    00:00 +6°C° 0 mm 4 mps 758 mmHg 91%
    01:00 +6°C° 0 mm 4 mps 758 mmHg 91%
    02:00 +5°C° 0 mm 4 mps 758 mmHg 91%
    03:00 +5°C° 0 mm 4 mps 758 mmHg 90%
    04:00 +5°C° 0 mm 4 mps 758 mmHg 90%
    05:00 +4°C° 0 mm 4 mps 758 mmHg 89%
    06:00 +4°C° 0 mm 4 mps 758 mmHg 89%
    07:00 +4°C° 0 mm 4 mps 759 mmHg 87%
    08:00 +5°C° 0 mm 3 mps 759 mmHg 85%
    09:00 +5°C° 0 mm 3 mps 760 mmHg 83%
    10:00 +8°C° 0 mm 3 mps 759 mmHg 77%
    11:00 +10°C° 0 mm 3 mps 759 mmHg 72%
    12:00 +11°C° 0 mm 3 mps 759 mmHg 66%
    13:00 +11°C° 0 mm 4 mps 759 mmHg 67%
    14:00 +11°C° 0 mm 4 mps 758 mmHg 67%
    15:00 +11°C° 0 mm 4 mps 758 mmHg 68%
    16:00 +10°C° 0 mm 4 mps 758 mmHg 74%
    17:00 +8°C° 0 mm 5 mps 758 mmHg 80%
    18:00 +6°C° 0 mm 5 mps 758 mmHg 86%
    19:00 +6°C° 0 mm 5 mps 757 mmHg 85%
    20:00 +6°C° 0 mm 5 mps 757 mmHg 84%
    21:00 +7°C° 0 mm 5 mps 757 mmHg 84%
    22:00 +7°C° 0 mm 6 mps 756 mmHg 82%
    23:00 +7°C° 0 mm 6 mps 756 mmHg 80%

    18 December, Tuesday

    Time Temperature Precipitation Wind Pressure Humidity
    00:00 +7°C° 0 mm 6 mps 755 mmHg 78%
    01:00 +7°C° 0 mm 6 mps 755 mmHg 75%
    02:00 +7°C° 0 mm 6 mps 754 mmHg 73%
    03:00 +7°C° 0 mm 6 mps 753 mmHg 70%
    04:00 +7°C° 0 mm 6 mps 753 mmHg 66%
    05:00 +8°C° 0 mm 6 mps 753 mmHg 62%
    06:00 +9°C° 0 mm 6 mps 752 mmHg 57%
    07:00 +9°C° 0 mm 6 mps 752 mmHg 58%
    08:00 +9°C° 0 mm 7 mps 752 mmHg 59%
    09:00 +9°C° 0 mm 7 mps 751 mmHg 60%
    10:00 +10°C° 0 mm 7 mps 751 mmHg 61%
    11:00 +10°C° 0 mm 8 mps 750 mmHg 62%
    12:00 +11°C° 0 mm 8 mps 750 mmHg 63%
    13:00 +11°C° 0.1 mm 8 mps 750 mmHg 65%
    14:00 +11°C° 0.1 mm 7 mps 749 mmHg 67%
    15:00 +11°C° 0.1 mm 6 mps 749 mmHg 68%
    16:00 +11°C° 0.3 mm 6 mps 749 mmHg 72%
    17:00 +12°C° 0.3 mm 5 mps 750 mmHg 76%
    18:00 +12°C° 0.3 mm 5 mps 750 mmHg 80%
    19:00 +12°C° 0.2 mm 5 mps 751 mmHg 82%
    20:00 +12°C° 0.2 mm 5 mps 751 mmHg 84%
    21:00 +12°C° 0.2 mm 5 mps 752 mmHg 87%
    22:00 +12°C° 0.2 mm 5 mps 752 mmHg 89%
    23:00 +11°C° 0.2 mm 4 mps 752 mmHg 91%

    19 December, Wednesday

    Time Temperature Precipitation Wind Pressure Humidity
    00:00 +10°C° 0.2 mm 4 mps 752 mmHg 94%
    01:00 +10°C° 0 mm 3 mps 752 mmHg 94%
    02:00 +9°C° 0 mm 3 mps 752 mmHg 94%
    03:00 +9°C° 0 mm 3 mps 752 mmHg 94%
    04:00 +8°C° 0 mm 3 mps 752 mmHg 93%
    05:00 +8°C° 0 mm 3 mps 752 mmHg 93%
    06:00 +7°C° 0 mm 3 mps 752 mmHg 93%
    07:00 +7°C° 0 mm 3 mps 753 mmHg 90%
    08:00 +8°C° 0 mm 3 mps 753 mmHg 88%
    09:00 +7°C° 0 mm 4 mps 753 mmHg 86%
    10:00 +10°C° 0 mm 3 mps 753 mmHg 78%
    11:00 +11°C° 0 mm 3 mps 753 mmHg 70%
    12:00 +13°C° 0 mm 3 mps 753 mmHg 63%
    13:00 +13°C° 0 mm 3 mps 753 mmHg 63%
    14:00 +13°C° 0 mm 3 mps 752 mmHg 62%
    15:00 +13°C° 0 mm 3 mps 752 mmHg 62%
    16:00 +11°C° 0 mm 3 mps 752 mmHg 68%
    17:00 +10°C° 0 mm 3 mps 752 mmHg 74%
    18:00 +8°C° 0 mm 3 mps 752 mmHg 80%
    19:00 +7°C° 0.1 mm 4 mps 752 mmHg 81%
    20:00 +8°C° 0.1 mm 4 mps 752 mmHg 82%
    21:00 +8°C° 0.1 mm 5 mps 752 mmHg 83%
    22:00 +8°C° 0.1 mm 5 mps 752 mmHg 83%
    23:00 +8°C° 0.1 mm 6 mps 752 mmHg 83%
    Show more